This is the latest recevied weather packets stored in our database for station/object W0BJ. If no packets are shown the sender has not sent any weather packets the latest 10 day(s).
| Time | Temp. | Humidity | Pressure | Rain* | Wind** | Luminosity | Snow |
|---|---|---|---|---|---|---|---|
| 1777716145 | 8.33° C | 83% | 1019.8 hPa | 0 mm | - | - | - |
| 1777715598 | 8.89° C | 82% | 1019.7 hPa | 0 mm | - | - | - |
| 1777715544 | 8.89° C | 82% | 1019.9 hPa | 0 mm | - | - | - |
| 1777714944 | 8.89° C | 79% | 1019.8 hPa | 0 mm | - | - | - |
| 1777714698 | 9.44° C | 78% | 1019.9 hPa | 0 mm | - | - | - |
| 1777714343 | 9.44° C | 77% | 1019.7 hPa | 0 mm | - | - | - |
| 1777713797 | 9.44° C | 76% | 1019.8 hPa | 0 mm | - | - | - |
| 1777713743 | 9.44° C | 76% | 1019.8 hPa | 0 mm | - | - | - |
| 1777713145 | 9.44° C | 77% | 1019.8 hPa | 0 mm | - | - | - |
| 1777712898 | 9.44° C | 77% | 1019.7 hPa | 0 mm | - | - | - |
| 1777712544 | 9.44° C | 78% | 1019.6 hPa | 0 mm | - | - | - |
| 1777711998 | 9.44° C | 80% | 1019.7 hPa | 0 mm | - | - | - |
| 1777711943 | 9.44° C | 80% | 1019.6 hPa | 0 mm | - | - | - |
| 1777711344 | 9.44° C | 81% | 1019.5 hPa | 0 mm | - | - | - |
| 1777711098 | 9.44° C | 81% | 1019.5 hPa | 0 mm | - | - | - |
| 1777710744 | 9.44° C | 81% | 1019.3 hPa | 0 mm | - | - | - |
| 1777710197 | 9.44° C | 81% | 1019.4 hPa | 0 mm | - | - | - |
| 1777710143 | 9.44° C | 81% | 1019.5 hPa | 0 mm | - | - | - |
| 1777709545 | 9.44° C | 81% | 1019.3 hPa | 0 mm | - | - | - |
| 1777709299 | 9.44° C | 79% | 1019.4 hPa | 0 mm | - | - | - |
| 1777708944 | 10° C | 78% | 1019.5 hPa | 0 mm | - | - | - |
| 1777708398 | 10.56° C | 75% | 1019.3 hPa | 0 mm | - | - | - |
| 1777708344 | 10.56° C | 75% | 1019.5 hPa | 0 mm | - | - | - |
| 1777707744 | 10.56° C | 74% | 1019.4 hPa | 0 mm | - | - | - |
| 1777707497 | 10.56° C | 73% | 1019.5 hPa | 0 mm | - | - | - |
* Rain latest hour (hover to see other rain measurements)
** Current wind speed in m/s (hover to see current wind gust speed)